Location: Crescent
(42.8242°N, 73.7329°W)
Time: 02:52:26
(UTC+00:00)

Tiros 1 - Pass Details

Date: 16 February 2026
Orbit: 618 x 649 km, 48.4° (Epoch: 7 March)

Event Time Altitude Azimuth Distance (km) Brightness Sun altitude
Rises 19:16:29 0° 295° (WNW) 2,891 10.6 27.8°
Reaches altitude 10° 19:18:47 10° 295° (WNW) 1,982 9.9 27.5°
Maximum altitude 19:23:21 82° 208° (SSW) 627 7.7 27.0°
Drops below altitude 10° 19:27:53 10° 121° (ESE) 1,976 9.7 26.5°
Sets 19:30:11 0° 121° (ESE) 2,882 10.4 26.3°
